{"data":{"norad_id":68703,"epoch":"2026-09-19T13:54:29.721888Z","epoch_age_seconds":123545,"freshness":"FRESH","line1":"1 68703U 26081E   26262.57951067  .00021131  00000+0  63487-3 0  9997","line2":"2 68703  53.1587 210.2734 0001941  89.3904 270.7321 15.34394593 24477","mean_motion":15.34394593,"eccentricity":0.0001941,"inclination_deg":53.1587,"raan_deg":210.2734,"arg_perigee_deg":89.3904,"mean_anomaly_deg":270.7321,"bstar":0.00063487,"rev_number":2447,"period_min":93.848088788201,"perigee_km":461.39150078781,"apogee_km":464.04712120774,"semimajor_km":6840.8563109978,"source":"CELESTRAK","updated_at":"2026-09-20T09:00:43.957249Z"}}